Printer-friendly version

IAU Minor Planet Center

Minor Planet Center

MPEC 2008-E28 : 2008 EN

The following Minor Planet Electronic Circular may be linked-to from your own Web pages, but must not otherwise be redistributed electronically.


Read MPEC 2008-E27 Read MPEC 2008-E29


M.P.E.C. 2008-E28                                Issued 2008 Mar. 3, 13:14 UT

     The Minor Planet Electronic Circulars contain information on unusual
         minor planets and routine data on comets.  They are published
   on behalf of Commission 20 of the International Astronomical Union by the
          Minor Planet Center, Smithsonian Astrophysical Observatory,
                          Cambridge, MA 02138, U.S.A.

             Prepared using the Tamkin Foundation Computer Network

                              MPC@CFA.HARVARD.EDU
          URL http://www.cfa.harvard.edu/iau/mpc.html  ISSN 1523-6714

                                    2008 EN

Observations:
     K08E00N  C2008 03 01.42037 10 37 35.47 +36 14 55.8          21.3 V EE028G96
     K08E00N  C2008 03 01.42604 10 37 37.12 +36 15 36.1          21.3 V EE028G96
     K08E00N  C2008 03 01.43169 10 37 38.82 +36 16 16.6          21.1 V EE028G96
     K08E00N  C2008 03 01.43733 10 37 40.47 +36 16 56.1          21.2 V EE028G96
     K08E00N* C2008 03 01.47803 10 37 52.71 +36 21 40.8          20.4 V EE028G96
     K08E00N  C2008 03 01.48370 10 37 54.43 +36 22 21.0          20.4 V EE028G96
     K08E00N  C2008 03 01.48941 10 37 56.18 +36 23 00.7          20.8 V EE028G96
     K08E00N  C2008 03 01.49508 10 37 57.92 +36 23 39.6          20.3 V EE028G96
     K08E00N  C2008 03 02.43539 10 42 47.37 +38 08 35.6          21.7 V EE028G96
     K08E00N  C2008 03 02.43647 10 42 47.70 +38 08 42.0          21.0 V EE028G96
     K08E00N  C2008 03 02.43757 10 42 47.95 +38 08 48.1          21.7 V EE028G96
     K08E00N  C2008 03 02.43866 10 42 48.27 +38 08 55.1          22.4 V EE028G96
     K08E00N  C2008 03 03.34265 10 47 08.88 +39 37 12.6          22.5 V EE028G96
     K08E00N  C2008 03 03.34518 10 47 09.53 +39 37 26.8          22.4 V EE028G96
     K08E00N  C2008 03 03.34785 10 47 10.18 +39 37 40.7          22.3 V EE028G96
     K08E00N  C2008 03 03.35049 10 47 10.89 +39 37 55.1          22.3 V EE028G96

Observer details:
G96 Mt. Lemmon Survey.  Observer E. Beshore.  Measurers E. C. Beshore,
    A. Boattini, G. J. Garradd, A. R. Gibbs, A. D. Grauer, R. E. Hill,
    R. A. Kowalski, S. M. Larson, R. H. McNaught.  1.5-m reflector + CCD.

Orbital elements:
2008 EN                                                  Earth MOID = 0.0664 AU
Epoch 2008 May 14.0 TT = JDT 2454600.5                  MPC
M  57.08636              (2000.0)            P               Q
n   0.46273373     Peri.  309.44836     -0.25920912     -0.94761065
a   1.6554470      Node   153.69394     +0.96374330     -0.26644579
e   0.4260127      Incl.   24.91120     +0.06332040     +0.17618368
P   2.13           H   24.5           G   0.15           U   9
Residuals in seconds of arc
080301 G96  0.3+  0.3-    080301 G96  0.1-  0.2+    080303 G96  0.4-  0.0
080301 G96  0.1-  0.1-    080301 G96  0.0   0.3-    080303 G96  0.1-  0.4+
080301 G96  0.2+  0.5+    080302 G96  0.1+  0.3+    080303 G96  0.2-  0.2-
080301 G96  0.2-  0.2+    080302 G96  0.5+  0.1+    080303 G96  0.4+  0.1-
080301 G96  0.1-  0.4-    080302 G96  0.2-  0.5-
080301 G96  0.2-  0.3+    080302 G96  0.1+  0.1-

Ephemeris:
2008 EN                  a,e,i = 1.66, 0.43, 25                  q = 0.9502
Date    TT    R. A. (2000) Decl.     Delta      r     Elong.  Phase     V
2008 02 24    09 53.12   +14 35.7    0.0793   1.068   170.7     8.7    19.7
2008 02 25    10 01.62   +19 27.0    0.0847   1.073   167.9    11.2    20.0
2008 02 26    10 09.48   +23 39.5    0.0909   1.078   164.3    14.4    20.3
2008 02 27    10 16.74   +27 17.0    0.0975   1.083   160.8    17.5    20.5
2008 02 28    10 23.44   +30 23.9    0.105    1.088   157.5    20.4    20.8
2008 02 29    10 29.64   +33 04.5    0.112    1.093   154.6    22.9    21.0
2008 03 01    10 35.36   +35 22.7    0.120    1.098   152.0    25.0    21.3
2008 03 02    10 40.66   +37 21.9    0.128    1.104   149.7    26.9    21.5
2008 03 03    10 45.57   +39 05.0    0.136    1.109   147.6    28.6    21.7
2008 03 04    10 50.11   +40 34.4    0.145    1.114   145.8    30.0    21.8
2008 03 05    10 54.32   +41 52.1    0.153    1.120   144.1    31.3    22.0

Timothy B. Spahr             (C) Copyright 2008 MPC           M.P.E.C. 2008-E28

Read MPEC 2008-E27 Read MPEC 2008-E29


Our Web policy. Index to the CBAT/MPC/ICQ pages.


Valid HTML 4.01!